Location: Balaclava NSW 2575, Australia
(34.4510°S, 150.4953°E)
Time: 21:55:53
(UTC+10:00)

XW-2C - Pass Details

Date: 02 August 2021
Orbit: 505 x 524 km, 97.5° (Epoch: 26 September)

Event Time Altitude Azimuth Distance (km) Brightness Sun altitude
Rises 17:36:39 0° 163° (SSE) 2,663 ? -4.4°
Reaches altitude 10° 17:38:49 10° 158° (SSE) 1,763 ? -4.8°
Maximum altitude 17:42:32 52° 80° (E) 645 ? -5.6°
Drops below altitude 10° 17:46:11 10° 3° (N) 1,727 ? -6.3°
Sets 17:48:17 0° 357° (N) 2,601 ? -6.7°
